Location: Dunedin
(45.8900°S, 170.5000°E)
Time: 07:30:25
(UTC+12:00)

ISS - Visible Passes

Search period start: 21 May 2018 00:00
Search period end: 31 May 2018 00:00
Orbit: 402 x 407 km, 51.6° (Epoch: 21 May)

Date Brightness Start Highest point End Pass type
(mag) Time Alt. Az. Time Alt. Az. Time Alt. Az.
26 May -0.7 07:10:06 10° N 07:12:23 17° NE 07:14:41 10° E visible
28 May -2.1 07:01:02 10° NNW 07:04:07 35° NE 07:07:14 10° ESE visible
29 May -1.2 06:09:27 10° N 06:12:01 21° NE 06:14:37 10° E visible
30 May -0.7 05:19:43 12° NE 05:19:58 12° NE 05:21:21 10° ENE visible
30 May -3.6 06:52:37 10° NW 06:55:57 75° NNE 06:59:18 10° ESE visible
